Natchitoches, LA

9:24 AM CST on December 15, 2017 (GMT -0600)
Natchitoches Regional

Weather History for KIER - March, 2013

Change the Weather History Date:

Monday, March 4, 2013

  Actual Average Record
Temperature  
Mean Temperature 58 °F -  
Max Temperature 74 °F 67 °F 85 °F (1976)
Min Temperature 41 °F 45 °F 22 °F (1960)
Degree Days  
Heating Degree Days 8    
Growing Degree Days 8 (Base 50)    
Moisture  
Dew Point 50 °F    
Average Humidity 70    
Maximum Humidity 91    
Minimum Humidity 49    
Precipitation  
Precipitation 0.00 in - - ()
Sea Level Pressure  
Sea Level Pressure 29.87 in    
Wind  
Wind Speed 10 mph (South)    
Max Wind Speed 25 mph    
Max Gust Speed 32 mph    
Visibility 10 miles    
Events      
Averages and records for this station are not official NWS values.
T = Trace of Precipitation, MM = Missing Value Source: NWS Daily Summary

Daily Weather History Graph

Daily Weather History Graph

Search for Another Location

Airport or City:

Trip Planner

Search our weather history database for the weather conditions in past years. The results will help you decide how hot, cold, wet, or windy it might be!

Date:

Astronomy

Mar. 04, 2013 Rise Set
Actual Time 6:35 AM CST 6:12 PM CST
Civil Twilight 6:11 AM CST 6:37 PM CST
Nautical Twilight 5:43 AM CST 7:05 PM CST
Astronomical Twilight 5:14 AM CST 7:33 PM CST
Moon 12:31 AM CST (3/4) 11:10 AM CST (3/4)
Length of Visible Light 12h 25m
Length of Day
11h 37m
Waning Gibbous, 52% of the Moon is Illuminated
Mar 4
Waning Gibbous
Mar 4
Last Quarter
Mar 11
New
Mar 19
First Quarter
Mar 27
Full

Hourly Weather History & Observations

Time (CST) Temp. Windchill Dew Point Humidity Pressure Visibility Wind Dir Wind Speed Gust Speed Precip Events Conditions
12:15 AM 44.2 °F 41.8 °F 34.7 °F 69% 30.05 in 10.0 mi South 4.6 mph - N/A   Clear
12:35 AM 43.3 °F 39.9 °F 35.6 °F 74% 30.05 in 10.0 mi South 5.8 mph - N/A   Clear
12:55 AM 42.8 °F 39.3 °F 35.6 °F 76% 30.04 in 10.0 mi SSE 5.8 mph - N/A   Clear
1:15 AM 42.6 °F 38.4 °F 36.1 °F 78% 30.03 in 10.0 mi SSE 6.9 mph - N/A   Clear
2:15 AM 42.3 °F 37.9 °F 37.4 °F 83% 30.00 in 10.0 mi SSE 6.9 mph - N/A   Clear
2:35 AM 42.8 °F 40.1 °F 37.6 °F 82% 30.00 in 10.0 mi SSE 4.6 mph - N/A   Clear
2:55 AM 43.0 °F 37.7 °F 38.5 °F 84% 29.98 in 10.0 mi South 9.2 mph - N/A   Clear
3:15 AM 44.1 °F 40.1 °F 39.2 °F 83% 29.97 in 10.0 mi South 6.9 mph - N/A   Clear
3:35 AM 44.1 °F 41.5 °F 39.0 °F 82% 29.98 in 10.0 mi SSE 4.6 mph - N/A   Clear
3:55 AM 42.3 °F 39.4 °F 37.8 °F 84% 29.98 in 10.0 mi SE 4.6 mph - N/A   Clear
4:15 AM 41.9 °F - 37.9 °F 86% 29.97 in 10.0 mi Calm Calm - N/A   Clear
4:35 AM 41.0 °F 38.0 °F 38.3 °F 90% 29.96 in 10.0 mi ESE 4.6 mph - N/A   Clear
4:55 AM 43.2 °F 38.4 °F 39.4 °F 86% 29.95 in 10.0 mi SE 8.1 mph - N/A   Clear
5:15 AM 42.8 °F 38.0 °F 39.6 °F 88% 29.94 in 10.0 mi SE 8.1 mph - N/A   Clear
5:35 AM 43.2 °F 39.0 °F 40.1 °F 89% 29.94 in 10.0 mi SE 6.9 mph - N/A   Clear
5:55 AM 42.4 °F 38.8 °F 40.1 °F 91% 29.94 in 10.0 mi SSE 5.8 mph - N/A   Clear
6:15 AM 43.0 °F 38.8 °F 40.5 °F 91% 29.93 in 10.0 mi SE 6.9 mph - N/A   Clear
6:35 AM 43.5 °F 40.9 °F 41.0 °F 91% 29.94 in 10.0 mi SSE 4.6 mph - N/A   Clear
6:55 AM 43.0 °F 38.8 °F 40.6 °F 91% 29.95 in 10.0 mi SSE 6.9 mph - N/A   Clear
7:15 AM 46.4 °F 42.4 °F 43.5 °F 90% 29.95 in 10.0 mi SSE 8.1 mph - N/A   Clear
7:55 AM 54.5 °F - 47.5 °F 77% 29.94 in 10.0 mi South 13.8 mph 19.6 mph N/A   Clear
8:15 AM 55.8 °F - 48.2 °F 76% 29.94 in 10.0 mi South 13.8 mph 19.6 mph N/A   Clear
8:35 AM 57.7 °F - 49.1 °F 73% 29.94 in 10.0 mi South 13.8 mph 24.2 mph N/A   Clear
8:55 AM 58.8 °F - 49.6 °F 72% 29.94 in 10.0 mi South 15.0 mph 20.7 mph N/A   Clear
9:15 AM 61.5 °F - 51.1 °F 69% 29.93 in 10.0 mi South 13.8 mph 19.6 mph N/A   Scattered Clouds
9:35 AM 63.3 °F - 52.2 °F 67% 29.93 in 10.0 mi South 11.5 mph 17.3 mph N/A   Scattered Clouds
9:55 AM 65.3 °F - 52.7 °F 64% 29.93 in 10.0 mi SSW 13.8 mph - N/A   Clear
10:15 AM 66.4 °F - 52.2 °F 60% 29.92 in 10.0 mi SSW 16.1 mph 27.6 mph N/A   Scattered Clouds
10:35 AM 66.6 °F - 52.2 °F 60% 29.91 in 10.0 mi South 20.7 mph 27.6 mph N/A   Scattered Clouds
10:55 AM 67.5 °F - 52.9 °F 59% 29.90 in 10.0 mi South 17.3 mph 26.5 mph N/A   Clear
11:15 AM 68.9 °F - 53.6 °F 58% 29.89 in 10.0 mi SSW 17.3 mph 27.6 mph N/A   Scattered Clouds
11:35 AM 69.8 °F - 53.1 °F 55% 29.88 in 10.0 mi SSW 17.3 mph 31.1 mph N/A   Scattered Clouds
11:55 AM 70.0 °F - 52.5 °F 54% 29.87 in 10.0 mi SSW 20.7 mph 32.2 mph N/A   Scattered Clouds
12:15 PM 70.7 °F - 52.9 °F 53% 29.85 in 10.0 mi South 21.9 mph 31.1 mph N/A   Scattered Clouds
12:35 PM 72.7 °F - 53.4 °F 51% 29.85 in 10.0 mi SSW 25.3 mph 32.2 mph N/A   Scattered Clouds
12:55 PM 73.2 °F - 53.4 °F 50% 29.83 in 10.0 mi South 20.7 mph 31.1 mph N/A   Scattered Clouds
1:15 PM 72.3 °F - 52.9 °F 50% 29.82 in 10.0 mi SSW 20.7 mph 26.5 mph N/A   Clear
1:35 PM 73.0 °F - 53.1 °F 49% 29.80 in 10.0 mi SSW 15.0 mph 32.2 mph N/A   Clear
1:55 PM 72.9 °F - 53.8 °F 51% 29.80 in 10.0 mi SSW 17.3 mph 27.6 mph N/A   Clear
2:15 PM 73.2 °F - 53.8 °F 50% 29.79 in 10.0 mi South 18.4 mph 28.8 mph N/A   Scattered Clouds
2:35 PM 72.9 °F - 54.5 °F 52% 29.78 in 10.0 mi South 18.4 mph 26.5 mph N/A   Clear
2:55 PM 73.8 °F - 54.7 °F 51% 29.77 in 10.0 mi South 20.7 mph 27.6 mph N/A   Clear
3:15 PM 73.4 °F - 54.7 °F 52% 29.77 in 10.0 mi SSW 19.6 mph 28.8 mph N/A   Clear
3:35 PM 73.4 °F - 54.7 °F 52% 29.77 in 10.0 mi South 16.1 mph 31.1 mph N/A   Clear
3:55 PM 74.5 °F - 55.6 °F 52% 29.77 in 10.0 mi South 15.0 mph 24.2 mph N/A   Clear
4:15 PM 72.7 °F - 55.0 °F 54% 29.77 in 10.0 mi South 18.4 mph 25.3 mph N/A   Scattered Clouds
4:35 PM 71.4 °F - 55.4 °F 57% 29.77 in 10.0 mi South 16.1 mph 21.9 mph N/A   Scattered Clouds
4:55 PM 70.7 °F - 55.6 °F 59% 29.77 in 10.0 mi South 11.5 mph 20.7 mph N/A   Clear
5:15 PM 70.2 °F - 55.8 °F 60% 29.77 in 10.0 mi South 12.7 mph 17.3 mph N/A   Clear
5:35 PM 69.4 °F - 56.1 °F 62% 29.77 in 10.0 mi South 15.0 mph 23.0 mph N/A   Clear
5:55 PM 69.1 °F - 55.9 °F 63% 29.78 in 10.0 mi South 13.8 mph 28.8 mph N/A   Clear
6:15 PM 68.4 °F - 55.9 °F 64% 29.78 in 10.0 mi South 16.1 mph 23.0 mph N/A   Clear
6:35 PM 68.2 °F - 55.9 °F 65% 29.78 in 10.0 mi South 16.1 mph 25.3 mph N/A   Clear
6:55 PM 68.0 °F - 56.3 °F 66% 29.78 in 10.0 mi SSW 13.8 mph 23.0 mph N/A   Clear
7:15 PM 67.3 °F - 56.3 °F 68% 29.78 in 10.0 mi South 17.3 mph 23.0 mph N/A   Clear
7:35 PM 67.1 °F - 56.3 °F 68% 29.79 in 10.0 mi SSW 16.1 mph 26.5 mph N/A   Clear
7:55 PM 66.6 °F - 56.3 °F 69% 29.79 in 10.0 mi South 13.8 mph 21.9 mph N/A   Clear
8:15 PM 66.4 °F - 56.5 °F 70% 29.80 in 10.0 mi SSW 13.8 mph 19.6 mph N/A   Clear
8:35 PM 65.8 °F - 56.5 °F 72% 29.80 in 10.0 mi South 15.0 mph - N/A   Clear
8:55 PM 65.8 °F - 57.2 °F 74% 29.81 in 10.0 mi South 11.5 mph 18.4 mph N/A   Scattered Clouds
9:15 PM 65.5 °F - 57.6 °F 76% 29.81 in 10.0 mi South 11.5 mph 20.7 mph N/A   Scattered Clouds
9:35 PM 65.3 °F - 57.7 °F 76% 29.82 in 10.0 mi South 12.7 mph 19.6 mph N/A   Scattered Clouds
9:55 PM 64.9 °F - 58.1 °F 78% 29.82 in 10.0 mi South 16.1 mph 21.9 mph N/A   Scattered Clouds
10:15 PM 64.9 °F - 58.1 °F 78% 29.83 in 10.0 mi SSW 12.7 mph 19.6 mph N/A   Mostly Cloudy
10:55 PM 65.3 °F - 58.6 °F 79% 29.84 in 10.0 mi SSW 12.7 mph 17.3 mph N/A   Overcast
11:15 PM 65.3 °F - 59.0 °F 80% 29.83 in 10.0 mi SSW 11.5 mph 20.7 mph N/A   Overcast
11:35 PM 65.3 °F - 59.0 °F 80% 29.83 in 10.0 mi South 15.0 mph 20.7 mph N/A   Overcast
11:55 PM 64.9 °F - 59.0 °F 81% 29.83 in 10.0 mi South 12.7 mph 18.4 mph N/A   Overcast